Jaipur, India

9:36 AM IST on August 22, 2017 (GMT +0530)
Jaipur

Weather History for VIJP - September, 2013

Change the Weather History Date:

Friday, September 27, 2013

  Actual Average Record
Temperature  
Mean Temperature 86 °F -  
Max Temperature 95 °F - - ()
Min Temperature 76 °F - - ()
Cooling Degree Days 20    
Growing Degree Days 36 (Base 50)    
Moisture  
Dew Point 69 °F    
Average Humidity 61    
Maximum Humidity 83    
Minimum Humidity 28    
Precipitation  
Precipitation 0.00 in - - ()
Sea Level Pressure  
Sea Level Pressure 29.78 in    
Wind  
Wind Speed 5 mph ()    
Max Wind Speed 10 mph    
Max Gust Speed -    
Visibility 2.5 miles    
Events      
T = Trace of Precipitation, MM = Missing Value Source: Averaged Metar Reports

Daily Weather History Graph

Daily Weather History Graph

Search for Another Location

Airport or City:

Trip Planner

Search our weather history database for the weather conditions in past years. The results will help you decide how hot, cold, wet, or windy it might be!

Date:

Astronomy

Sep. 27, 2013 Rise Set
Actual Time 6:17 AM IST 6:17 PM IST
Civil Twilight 5:54 AM IST 6:40 PM IST
Nautical Twilight 5:27 AM IST 7:07 PM IST
Astronomical Twilight 5:00 AM IST 7:34 PM IST
Moon 12:10 AM IST (9/28) 1:06 PM IST (9/27)
Length of Visible Light 12h 46m
Length of Day
12h 00m
Waning Gibbous, 49% of the Moon is Illuminated
Sep 27
Waning Gibbous
Oct 5
New
Oct 12
First Quarter
Oct 19
Full
Oct 27
Last Quarter

Hourly Weather History & Observations

Time (IST) Temp. Heat Index Dew Point Humidity Pressure Visibility Wind Dir Wind Speed Gust Speed Precip Events Conditions
12:00 AM 80.6 °F 84.6 °F 71.6 °F 74% 29.83 in 2.5 mi West 9.2 mph - N/A   Haze
1:00 AM 78.8 °F - 71.6 °F 78% 29.83 in 2.5 mi West 6.9 mph - N/A   Haze
2:00 AM 78.8 °F - 71.6 °F 78% 29.80 in 2.5 mi Variable 1.2 mph - N/A   Haze
4:00 AM 77.0 °F - 71.6 °F 83% 29.80 in 2.5 mi West 4.6 mph - N/A   Haze
5:00 AM 77.0 °F - 71.6 °F 83% 29.80 in 2.5 mi Calm Calm - N/A   Haze
5:30 AM 77 °F - 70 °F 74% 29.74 in 2 mi Calm Calm - -   Mist
5:30 AM 77.0 °F - 71.6 °F 83% 29.80 in 2.5 mi Calm Calm - N/A   Partly Cloudy
6:00 AM 77.0 °F - 71.6 °F 83% 29.80 in 2.5 mi Calm Calm - N/A   Partly Cloudy
7:00 AM 77.0 °F - 71.6 °F 83% 29.83 in 2.5 mi WSW 5.8 mph - N/A   Partly Cloudy
7:30 AM 77.0 °F - 71.6 °F 83% 29.83 in 2.5 mi WSW 5.8 mph - N/A   Partly Cloudy
8:00 AM 78.8 °F - 71.6 °F 78% 29.86 in 2.5 mi WSW 4.6 mph - N/A   Haze
8:30 AM 82 °F - 71 °F 61% 29.78 in 2 mi West 6.9 mph - -   Haze
10:00 AM 84.2 °F 88.4 °F 69.8 °F 62% 29.86 in 3.1 mi WSW 6.9 mph - N/A   Haze
11:00 AM 86.0 °F 89.4 °F 68.0 °F 55% 29.86 in 3.1 mi West 10.4 mph - N/A   Haze
11:30 AM 90 °F - 68 °F 38% 29.74 in 2 mi SW 9.2 mph - -   Haze
12:00 PM 87.8 °F 90.4 °F 66.2 °F 49% 29.83 in 3.1 mi West 9.2 mph - N/A   Haze
1:00 PM 89.6 °F 91.1 °F 64.4 °F 43% 29.80 in 3.1 mi WSW 9.2 mph - N/A   Haze
2:00 PM 91.4 °F 94.0 °F 66.2 °F 43% 29.77 in 3.1 mi WSW 10.4 mph - N/A   Haze
2:30 PM 93 °F - 64 °F 28% 29.68 in 2 mi WSW 9.2 mph - -   Haze
3:00 PM 91.4 °F 94.0 °F 66.2 °F 43% 29.74 in 3.1 mi WSW 9.2 mph - N/A   Haze
4:00 PM 91.4 °F 94.0 °F 66.2 °F 43% 29.74 in 3.1 mi WSW 6.9 mph - N/A   Haze
5:00 PM 91.4 °F 94.0 °F 66.2 °F 43% 29.74 in 3.1 mi West 9.2 mph - N/A   Haze
5:30 PM 91 °F - 65 °F 32% 29.65 in 2 mi WSW 6.9 mph - -   Haze
6:00 PM 89.6 °F 92.2 °F 66.2 °F 46% 29.74 in 2.5 mi WSW 6.9 mph - N/A   Haze
7:00 PM 87.8 °F 91.4 °F 68.0 °F 52% 29.77 in 2.5 mi SW 5.8 mph - N/A   Haze
8:00 PM 86.0 °F 90.4 °F 69.8 °F 58% 29.77 in 2.5 mi WSW 8.1 mph - N/A   Haze
8:30 PM 84 °F - 70 °F 55% 29.71 in 2 mi SW 6.9 mph - -   Haze
10:00 PM 82.4 °F 86.3 °F 69.8 °F 66% 29.80 in 1.9 mi WSW 5.8 mph - N/A   Haze
11:00 PM 80.6 °F 83.9 °F 69.8 °F 70% 29.83 in 1.9 mi WSW 4.6 mph - N/A   Haze
11:30 PM 81 °F - 71 °F 63% 29.74 in 1 mi West 4.6 mph - -   Haze